Simultaneous Nadir Overpasses (SNOs) Predictions

Prediction of SNOs between GOES-17 and NOAA-19 Satellite Orbit:

Table of predicted SNOs for the next 14.0 days since TLE Epoch: 7/6/2024
Index Date Time (GOES-17) GOES-17 Lat,Lon NOAA-19 Lat,Lon Distance(km) Time Diff (sec)
1 07/06/2024 15:59:51 -0.01,-104.71 -0.91,-100.90 436.18 80
2 07/08/2024 04:34:15 0.01,-104.69 -0.88,-108.51 435.74 80
3 07/09/2024 04:21:57 0.02,-104.69 -0.15,-105.53 94.52 80
4 07/10/2024 04:06:59 0.02,-104.70 0.52,-102.53 246.91 80
5 07/12/2024 16:29:04 -0.03,-104.72 0.54,-107.16 277.94 80
6 07/13/2024 16:14:05 -0.03,-104.72 -0.15,-104.16 63.82 80
7 07/14/2024 16:01:47 -0.03,-104.73 -0.85,-101.17 405.56 80
8 07/16/2024 04:36:11 0.02,-104.71 -0.94,-108.79 466.22 80
9 07/17/2024 04:23:53 0.03,-104.71 -0.25,-105.79 124.82 80
10 07/18/2024 04:08:55 0.03,-104.71 0.49,-102.82 216.57 80
